This demonstration page uses our WeatherBlox Daily Observations layout. Learn more.

Left ArrowRight Arrow

39.12711, -84.51439

Hourly Observations for March 24, 2021

Temp ( °F °C ) Dew Point ( °F °C ) Humidity (%) Winds ( mph kmh ) Pressure ( in mb ) Visibility ( mi km ) Precip ( " mm )
12:53 am 00:53 Cloudy 59 15 44 6.7 58 58 SW 3 6 29.85 1011 10 16.0934 0 0
1:53 am 01:53 Cloudy with Light Rain 62 16.7 50 10 65 65 S 12 19 29.87 1011 10 16.0934 0.001 0.001
2:53 am 02:53 Cloudy 62 16.7 48 8.9 60 60 SSE 10 17 29.86 1011 10 16.0934 0.001 0.001
3:53 am 03:53 Cloudy 63 17.2 48 8.9 58 58 SSW 15 24 29.86 1011 10 16.0934 0.001 0.001
4:53 am 04:53 Mostly Cloudy 62 16.7 47 8.3 58 58 SSW 14 22 29.86 1011 10 16.0934 0 0
5:53 am 05:53 Cloudy with Light Rain 59 15 50 10 72 72 S 7 11 29.85 1011 10 16.0934 0.001 0.001
6:53 am 06:53 Mostly Cloudy 56 13.3 51 10.6 84 84 Calm 29.87 1011 10 16.0934 0.001 0.001
7:53 am 07:53 Cloudy 59 15 50 10 72 72 S 9 15 29.87 1012 10 16.0934 0 0
8:53 am 08:53 Cloudy 59 15 49 9.4 69 69 S 7 11 29.87 1012 10 16.0934 0 0
9:53 am 09:53 Cloudy 62 16.7 50 10 65 65 S 13 20 29.87 1012 10 16.0934 0 0
10:53 am 10:53 Mostly Cloudy 67 19.4 52 11.1 59 59 S 21 33 29.87 1011 10 16.0934 0 0
11:53 am 11:53 Mostly Cloudy 68 20 52 11.1 57 57 SSW 17 28 29.85 1011 10 16.0934 0 0
12:53 pm 12:53 Cloudy 68 20 52 11.1 57 57 SSW 16 26 29.84 1011 10 16.0934 0 0
1:53 pm 13:53 Mostly Cloudy 71 21.7 52 11.1 51 51 SW 15 24 29.83 1010 10 16.0934 0 0
2:53 pm 14:53 Partly Cloudy 72 22.2 52 11.1 50 50 S 18 30 29.8 1009 10 16.0934 0 0
3:53 pm 15:53 Partly Cloudy 75 23.9 50 10 41 41 SW 15 24 29.79 1009 10 16.0934 0 0
4:53 pm 16:53 Partly Cloudy 74 23.3 46 7.8 37 37 SW 22 35 29.78 1009 10 16.0934 0 0
5:53 pm 17:53 Partly Cloudy 73 22.8 46 7.8 38 38 SW 16 26 29.79 1009 10 16.0934 0 0
6:53 pm 18:53 Partly Cloudy 72 22.2 46 7.8 40 40 SSW 15 24 29.81 1010 10 16.0934 0 0
7:53 pm 19:53 Partly Cloudy 69 20.6 46 7.8 44 44 SSW 10 17 29.84 1010 10 16.0934 0 0
8:53 pm 20:53 Clear 62 16.7 46 7.8 56 56 SW 8 13 29.86 1011 10 16.0934 0 0
9:53 pm 21:53 Clear 58 14.4 45 7.2 62 62 SSW 7 11 29.89 1012 10 16.0934 0 0
10:53 pm 22:53 Clear 56 13.3 45 7.2 67 67 WSW 5 7 29.91 1013 10 16.0934 0 0
11:53 pm 23:53 Clear 53 11.7 45 7.2 74 74 Calm 29.91 1013 10 16.0934 0 0

Powered by AerisWeather